Weather reports worldwide

Advertisment
Beauvais, France (7055): temperature & dewpoint: 18.01.2020 02:00:00 - 24.01.2020 02:00:00 (CET)Beauvais, France (7055): temperature 5cm: 18.01.2020 02:00:00 - 24.01.2020 02:00:00 (CET)Beauvais, France (7055): temperature -20cm & temperature -100cm: 18.01.2020 02:00:00 - 24.01.2020 02:00:00 (CET)Beauvais, France (7055): wind speed & gusts: 18.01.2020 02:00:00 - 24.01.2020 02:00:00 (CET)Beauvais, France (7055): wind direction: 18.01.2020 02:00:00 - 24.01.2020 02:00:00 (CET)Beauvais, France (7055): reduced air pressure: 18.01.2020 02:00:00 - 24.01.2020 02:00:00 (CET)Beauvais, France (7055): visibility: 18.01.2020 02:00:00 - 24.01.2020 02:00:00 (CET)Beauvais, France (7055): sunshine duration: 18.01.2020 02:00:00 - 24.01.2020 02:00:00 (CET)Beauvais, France (7055): precipitation: 18.01.2020 02:00:00 - 24.01.2020 02:00:00 (CET)
Date & Time tt [°C] td [°C] tt 5cm [°C] tt -20cm [°C] tt -100cm [°C] ff [km/h] ff [kn] fx [km/h] fx [kn] dd ppp [hPa] vv [km] sd [min] rr [mm]
24.01.2020 02:00:00 1,5 0,3 1,6 5,5 8,3 10 6 17 9 E 1025,2 4,3 0 0,0
24.01.2020 01:00:00 1,8 0,8 1,7 5,5 8,3 8 4 17 9 E 1025,8 4,8 0 0,0
24.01.2020 00:00:00 1,6 0,9 1,5 5,5 8,3 8 4 14 8 ENE 1026,4 3,3 0 0,0
23.01.2020 23:00:00 1,5 0,6 1,5 5,5 8,3 10 6 18 10 NE 1026,7 2,9 0 0,0
23.01.2020 22:00:00 1,5 0,5 1,5 5,5 8,3 7 4 21 11 ESE 1027,0 3,2 0 0,0
23.01.2020 21:00:00 1,4 0,4 1,3 5,5 8,3 10 5 26 14 ENE 1026,8 3,5 0 0,0
23.01.2020 20:00:00 1,5 0,5 1,6 5,5 8,4 17 9 24 13 NE 1026,8 3,6 0 0,0
23.01.2020 19:00:00 1,7 0,5 1,7 5,5 8,4 17 9 25 14 NE 1027,2 4,5 0 0,0
23.01.2020 18:00:00 2,0 0,8 2,0 5,5 8,4 14 8 41 22 NE 1027,6 4,2 0 0,0
23.01.2020 17:00:00 2,3 1,0 2,5 5,5 8,4 18 10 28 15 NE 1027,5 4,7 0 0,0
23.01.2020 16:00:00 2,8 1,5 3,2 5,5 8,4 15 8 32 17 NE 1028,0 5 0 0,0
23.01.2020 15:00:00 2,7 1,2 3,5 5,5 8,4 19 10 25 13 NNE 1028,3 6 0 0,0
23.01.2020 14:00:00 2,8 1,5 3,3 5,5 8,4 14 8 29 16 ENE 1029,2 8 0 0,0
23.01.2020 13:00:00 2,2 1,2 2,7 5,5 8,4 16 9 31 17 NE 1030,2 9 0 0,0
23.01.2020 12:00:00 1,7 1,1 2,2 5,5 8,4 13 7 25 14 E 1031,2 9 0 0,0
23.01.2020 11:00:00 1,4 1,0 1,6 5,5 8,4 16 9 31 17 E 1031,6 4,2 0 0,0
23.01.2020 10:00:00 1,2 0,8 0,9 5,5 8,5 15 8 34 18 ENE 1031,9 2,4 0 0,0
23.01.2020 09:00:00 0,7 0,0 0,6 5,5 8,5 16 8 26 14 ENE 1032,4 2,3 0 0,0
23.01.2020 08:00:00 0,6 -0,4 0,6 5,5 8,5 14 7 25 13 E 1032,4 3,3 0 0,0
23.01.2020 07:00:00 0,8 -0,2 0,9 5,6 8,5 10 6 23 12 ENE 1032,3 3,9 0 0,0
23.01.2020 06:00:00 1,0 0,1 0,3 5,6 8,5 16 9 26 14 E 1032,3 4,8 0 0,0
23.01.2020 05:00:00 0,7 0,0 -0,3 5,6 8,5 16 8 27 15 NE 1032,5 3,6 0 0,0
23.01.2020 04:00:00 0,8 0,1 0,8 5,6 8,5 18 10 31 17 NE 1033,3 3,5 0 0,0
23.01.2020 03:00:00 0,9 0,2 1,0 5,6 8,5 15 8 24 13 ENE 1034,3 2,6 0 0,0
23.01.2020 02:00:00 1,0 0,4 1,0 5,6 8,5 14 8 26 14 ENE 1034,7 1,7 0 0,0
23.01.2020 01:00:00 0,9 0,2 0,6 5,6 8,5 15 8 25 13 ENE 1035,3 2,1 0 0,0
23.01.2020 00:00:00 0,7 -0,3 0,3 5,7 8,6 16 9 27 15 NE 1035,4 2,7 0 0,0
22.01.2020 23:00:00 0,5 -0,5 0,1 5,7 8,5 10 5 28 15 NNE 1035,6 3,6 0 0,0
22.01.2020 22:00:00 0,4 -0,6 0,3 5,7 8,6 16 9 32 18 NE 1035,7 3,1 0 0,0
22.01.2020 21:00:00 0,2 -0,7 0,3 5,7 8,6 21 12 47 25 NE 1035,4 3,0 0 0,0
22.01.2020 20:00:00 0,5 -0,4 -0,8 5,8 8,6 17 9 31 17 NNE 1035,3 3,0 0 0,0
22.01.2020 19:00:00 0,8 -0,4 0,6 5,8 8,6 16 9 36 19 NE 1035,4 3,6 0 0,0
22.01.2020 18:00:00 1,0 0,0 0,2 5,8 8,6 14 7 38 20 NNE 1035,2 4,6 0 0,0
22.01.2020 17:00:00 1,8 0,0 1,5 5,8 8,6 11 6 29 16 NNE 1035,1 6 33 0,0
22.01.2020 16:00:00 3,1 0,7 3,8 5,9 8,6 13 7 26 14 NNE 1035,3 10 60 0,0
22.01.2020 15:00:00 3,1 0,5 6,0 5,9 8,6 11 6 32 17 ENE 1035,5 11 57 0,0
22.01.2020 14:00:00 3,2 1,2 3,6 6,0 8,6 16 8 30 16 ENE 1036,4 9 51 0,0
22.01.2020 13:00:00 1,8 1,2 1,6 6,0 8,6 21 11 31 17 NE 1037,3 13 1 0,0
22.01.2020 12:00:00 -0,2 -0,6 0,6 6,1 8,6 13 7 21 12 NNE 1037,9 3,9 19 0,0
22.01.2020 11:00:00 -2,1 -2,7 -3,2 6,1 8,6 9 5 18 10 ENE 1038,1 5 46 0,0
22.01.2020 10:00:00 -3,8 -4,3 -7,6 6,2 8,7 2 1 9 5 E 1037,3 3,1 39 0,0
22.01.2020 09:00:00 -5,2 -6,0 -7,9 6,2 8,7 6 3 16 9 ESE 1037,1 4,3 0 0,0
22.01.2020 08:00:00 -4,7 -5,2 -9,9 6,2 8,6 9 5 13 7 NNE 1037,5 7 0 0,0
22.01.2020 07:00:00 -6,0 -6,8 -9,7 6,3 8,6 3 2 6 3 ESE 1037,5 0,1 0 0,0
22.01.2020 06:00:00 -4,3 -5,0 -8,9 6,3 8,7 2 1 5 3 NNW 1037,5 0,3 0 0,0
22.01.2020 05:00:00 -3,9 -4,6 -8,6 6,4 8,7 4 2 13 7 N 1037,9 1,7 0 0,0
22.01.2020 04:00:00 -3,9 -4,6 -8,3 6,4 8,7 3 1 14 8 NNW 1038,5 6 0 0,0
22.01.2020 03:00:00 -4,3 -5,0 -7,0 6,4 8,7 12 6 18 10 NNW 1038,4 7 0 0,0
22.01.2020 02:00:00 -3,9 -4,4 -7,6 6,5 8,7 9 5 11 6 NW 1038,7 4,0 0 0,0
22.01.2020 01:00:00 -3,7 -4,2 -7,1 6,5 8,7 9 5 11 6 NW 1039,1 4,3 0 0,0
22.01.2020 00:00:00 -2,7 -3,5 -7,1 6,5 8,7 6 4 9 5 WNW 1039,4 5 0 0,0
21.01.2020 23:00:00 -2,0 -2,7 -5,9 6,5 8,7 5 3 17 9 W 1039,8 7 0 0,0
21.01.2020 22:00:00 -2,1 -3,1 -5,9 6,5 8,7 8 4 12 6 N 1040,1 6 0 0,0
21.01.2020 21:00:00 -1,7 -2,8 -5,4 6,5 8,7 2 1 21 11 W 1040,2 4,5 0 0,0
21.01.2020 20:00:00 -1,1 -2,1 -4,0 6,5 8,7 10 6 15 8 N 1040,4 8 0 0,0
21.01.2020 19:00:00 -0,7 -1,8 -4,6 6,5 8,7 8 4 11 6 NNE 1040,3 6 0 0,0
21.01.2020 18:00:00 0,4 -1,0 -1,1 6,5 8,7 11 6 24 13 NNE 1040,5 6 0 0,0
21.01.2020 17:00:00 2,4 0,3 1,7 6,5 8,8 11 6 20 11 NNE 1040,3 10 15 0,0
21.01.2020 16:00:00 3,9 -0,1 4,4 6,5 8,7 13 7 28 15 NE 1040,4 17 60 0,0
21.01.2020 15:00:00 4,2 0,3 7,8 6,5 8,8 9 5 16 9 NNE 1040,7 17 56 0,0
21.01.2020 14:00:00 3,4 1,6 6,5 6,6 8,8 7 4 16 9 NNE 1041,7 14 47 0,0
21.01.2020 13:00:00 2,0 1,7 4,3 6,6 8,8 5 3 16 8 ENE 1042,4 12 42 0,0
21.01.2020 12:00:00 0,6 0,5 1,9 6,6 8,8 10 5 14 8 WNW 1043,2 2,8 12 0,0
21.01.2020 11:00:00 -0,8 -1,1 -0,3 6,6 8,8 6 3 13 7 WNW 1043,3 0,3 0 0,0
21.01.2020 10:00:00 -1,6 -1,9 -1,2 6,6 8,8 8 4 12 6 NW 1042,8 0,2 9 0,0
21.01.2020 09:00:00 -1,6 -1,9 -1,3 6,6 8,8 4 2 10 5 NNW 1042,8 0,1 0 0,0
21.01.2020 08:00:00 -1,2 -1,5 -0,9 6,6 8,8 3 2 6 4 NE 1042,8 0,2 0 0,0
21.01.2020 07:00:00 -0,6 -0,9 -0,5 6,6 8,8 5 3 11 6 ENE 1042,7 0,1 0 0,0
21.01.2020 06:00:00 -0,1 -0,5 0,0 6,7 8,8 6 3 15 8 SE 1042,8 0,1 0 0,0
21.01.2020 05:00:00 0,3 -0,1 -1,8 6,7 8,9 9 5 19 10 NNE 1042,8 0,9 0 0,0
21.01.2020 04:00:00 0,6 -0,1 -1,3 6,7 8,9 4 2 15 8 NE 1043,3 2,4 0 0,0
21.01.2020 03:00:00 1,6 0,9 1,3 6,7 8,9 11 6 22 12 ENE 1043,8 2,5 0 0,0
21.01.2020 02:00:00 2,3 1,4 2,0 6,7 8,9 11 6 21 11 NE 1044,3 3,2 0 0,0
21.01.2020 01:00:00 2,7 2,0 1,1 6,7 8,9 8 5 24 13 ENE 1044,7 3,1 0 0,0
21.01.2020 00:00:00 2,3 1,6 0,7 6,7 8,9 16 8 21 12 NE 1045,1 3,8 0 0,0
20.01.2020 23:00:00 3,2 2,2 2,6 6,7 8,9 13 7 34 18 NE 1045,0 6 0 0,0
20.01.2020 22:00:00 3,2 2,0 2,5 6,6 8,9 14 7 33 18 NNE 1045,2 7 0 0,0
20.01.2020 21:00:00 3,7 2,7 3,1 6,7 8,9 14 8 28 15 NNE 1045,1 8 0 0,0
20.01.2020 20:00:00 4,0 2,8 3,6 6,7 8,9 11 6 26 14 NNE 1045,4 8 0 0,0
20.01.2020 19:00:00 4,0 2,8 3,6 6,6 8,9 13 7 19 11 N 1045,1 9 0 0,0
20.01.2020 18:00:00 4,1 2,6 3,6 6,6 8,9 10 6 22 12 N 1045,3 15 0 0,0
20.01.2020 17:00:00 4,4 2,4 4,4 6,6 8,9 12 7 31 17 NNE 1045,7 20 10 0,0
20.01.2020 16:00:00 5,0 2,7 5,9 6,7 8,9 16 9 37 20 NNE 1046,1 18 34 0,0
20.01.2020 15:00:00 4,4 2,4 5,1 6,7 8,9 19 10 26 14 NE 1046,8 16 28 0,0
20.01.2020 14:00:00 4,3 3,4 5,5 6,7 9,0 14 7 26 14 NE 1047,5 18 30 0,0
20.01.2020 13:00:00 3,6 3,3 3,8 6,7 8,9 13 7 20 11 NE 1048,2 12 15 0,0
20.01.2020 12:00:00 2,4 2,1 2,8 6,7 9,0 11 6 24 13 NNE 1049,0 6 0 0,0
20.01.2020 11:00:00 2,4 2,3 2,0 6,8 9,0 17 9 27 15 NNE 1048,9 3,6 10 0,0
20.01.2020 10:00:00 1,5 1,2 1,3 6,8 9,0 11 6 31 17 NNE 1048,6 0,4 8 0,0
20.01.2020 09:00:00 1,2 0,9 1,3 6,8 9,0 18 10 29 16 NNE 1048,3 0,3 0 0,0
20.01.2020 08:00:00 1,8 1,5 0,7 6,9 9,0 14 8 24 13 NNE 1048,0 0,4 0 0,0
20.01.2020 07:00:00 1,1 0,7 -1,3 6,9 9,0 2 1 16 8 NNW 1047,9 0,2 0 0,0
20.01.2020 06:00:00 1,0 0,6 -3,8 6,9 9,0 11 6 18 10 N 1047,2 5 0 0,0
20.01.2020 05:00:00 0,1 -0,6 -3,9 7,0 9,0 4 2 18 10 NNW 1047,2 4,7 0 0,0
20.01.2020 04:00:00 1,3 0,7 -0,3 7,0 9,0 13 7 20 11 N 1047,1 7 0 0,0
20.01.2020 03:00:00 1,2 0,5 0,2 7,0 9,0 15 8 21 11 NNE 1047,6 8 0 0,0
20.01.2020 02:00:00 1,4 0,5 0,4 7,0 9,1 16 9 23 12 NNE 1047,4 9 0 0,0
20.01.2020 01:00:00 1,4 0,4 0,1 7,0 9,0 16 9 20 11 NNE 1047,7 10 0 0,0
20.01.2020 00:00:00 1,5 0,2 -0,1 7,1 9,1 13 7 22 12 NNE 1047,5 12 0 0,0
19.01.2020 23:00:00 1,9 0,1 0,6 7,1 9,1 15 8 22 12 NNE 1047,0 14 0 0,0
19.01.2020 22:00:00 2,1 -0,2 0,6 7,1 9,1 14 7 37 20 NNE 1046,6 15 0 0,0
19.01.2020 21:00:00 3,1 0,2 1,0 7,1 9,1 12 7 27 14 N 1046,2 18 0 0,0
19.01.2020 20:00:00 3,6 0,6 2,0 7,1 9,1 16 8 26 14 NNE 1045,6 19 0 0,0
19.01.2020 19:00:00 3,6 1,0 2,1 7,1 9,1 13 7 36 19 N 1044,9 20 0 0,0
19.01.2020 18:00:00 4,7 1,7 3,2 7,1 9,1 22 12 37 20 N 1044,0 20 0 0,0
19.01.2020 17:00:00 5,6 1,5 4,8 7,1 9,1 16 8 42 23 NNE 1043,2 19 0 0,0
19.01.2020 16:00:00 6,6 1,7 6,4 7,2 9,1 23 12 41 22 NNE 1042,5 19 21 0,0
19.01.2020 15:00:00 7,0 2,7 7,1 7,2 9,1 26 14 40 22 N 1041,8 20 36 0,0
19.01.2020 14:00:00 6,9 2,8 9,2 7,2 9,1 22 12 44 24 N 1041,7 20 60 0,0
19.01.2020 13:00:00 6,3 2,2 9,2 7,3 9,1 26 14 52 28 N 1041,4 20 60 0,0
19.01.2020 12:00:00 5,7 2,5 7,3 7,4 9,1 22 12 38 21 N 1041,7 32 60 0,0
19.01.2020 11:00:00 4,5 2,7 3,0 7,4 9,1 20 11 31 17 N 1041,6 20 39 0,0
19.01.2020 10:00:00 2,3 1,6 -0,3 7,5 9,1 14 8 27 14 NNW 1040,7 20 39 0,0
19.01.2020 09:00:00 0,7 0,1 -4,1 7,5 9,1 16 9 21 11 NNW 1039,6 18 0 0,0
19.01.2020 08:00:00 -0,8 -1,4 -4,5 7,6 9,1 7 4 22 12 N 1038,9 13 0 0,0
19.01.2020 07:00:00 -1,8 -2,4 -4,1 7,6 9,1 13 7 17 9 NNW 1038,0 13 0 0,0
19.01.2020 06:00:00 -2,0 -2,6 -4,3 7,7 9,2 15 8 17 9 NW 1037,4 15 0 0,0
19.01.2020 05:00:00 -2,0 -2,6 -4,7 7,7 9,1 10 5 15 8 NW 1037,0 13 0 0,0
19.01.2020 04:00:00 -2,0 -2,6 -3,8 7,7 9,1 15 8 18 10 NW 1036,4 15 0 0,0
19.01.2020 03:00:00 -2,5 -3,1 -5,1 7,8 9,1 16 9 18 10 NW 1036,0 12 0 0,0
19.01.2020 02:00:00 -2,1 -2,7 -5,2 7,8 9,1 10 5 14 7 NW 1035,2 11 0 0,0
19.01.2020 01:00:00 -2,1 -2,8 -4,9 7,8 9,1 12 7 14 7 NW 1034,7 9 0 0,0
19.01.2020 00:00:00 -1,0 -1,6 -4,7 7,8 9,1 13 7 14 8 WNW 1034,1 12 0 0,0
18.01.2020 23:00:00 -1,2 -2,3 -4,1 7,9 9,2 10 5 14 7 WNW 1033,4 12 0 0,0
18.01.2020 22:00:00 -0,8 -1,9 -3,2 7,9 9,1 12 7 16 9 NW 1032,8 15 0 0,0
18.01.2020 21:00:00 0,5 -1,4 -3,0 7,9 9,1 9 5 14 8 NW 1031,9 20 0 0,0
18.01.2020 20:00:00 1,3 -0,2 -2,7 7,9 9,1 10 6 16 9 NNW 1031,3 20 0 0,0
18.01.2020 19:00:00 2,6 1,0 -1,3 7,9 9,1 8 4 25 14 NNE 1030,7 32 0 0,0
18.01.2020 18:00:00 3,9 2,4 0,1 7,9 9,2 6 4 11 6 NNE 1030,2 28 0 0,0
18.01.2020 17:00:00 6,2 3,2 3,1 7,9 9,1 3 2 8 4 W 1029,5 20 8 0,0
18.01.2020 16:00:00 7,3 3,3 8,6 7,9 9,1 4 2 10 5 WNW 1028,8 32 51 0,0
18.01.2020 15:00:00 6,4 3,7 6,7 7,9 9,1 4 2 21 12 NNW 1028,5 20 11 0,0
18.01.2020 14:00:00 6,1 4,3 7,5 7,9 9,1 11 6 19 11 WNW 1028,5 18 24 0,0
18.01.2020 13:00:00 5,6 4,1 7,4 8,0 9,1 15 8 22 12 NW 1028,4 20 26 0,0
18.01.2020 12:00:00 5,7 4,3 6,0 8,0 9,1 8 5 18 10 WNW 1028,5 20 17 0,0
18.01.2020 11:00:00 4,6 3,3 4,0 8,0 9,1 12 7 22 12 W 1028,1 35 15 0,0
18.01.2020 10:00:00 3,6 2,4 1,9 8,1 9,1 13 7 26 14 W 1027,8 41 25 0,0
18.01.2020 09:00:00 2,8 1,8 0,6 8,1 9,1 16 9 25 14 WSW 1027,4 47 0 0,0
18.01.2020 08:00:00 2,6 1,7 -1,8 8,1 9,1 12 6 23 12 WSW 1026,7 52 0 0,0
18.01.2020 07:00:00 2,4 1,1 -0,8 8,1 9,1 9 5 15 8 WSW 1026,0 53 0 0,0
18.01.2020 06:00:00 3,7 2,2 1,8 8,2 9,1 14 8 28 15 W 1025,7 59 0 0,0
18.01.2020 05:00:00 4,0 2,5 2,1 8,2 9,1 12 6 25 13 WSW 1025,4 47 0 0,2
18.01.2020 04:00:00 4,0 2,3 2,6 8,2 9,1 14 8 25 14 WSW 1025,3 47 0 0,6
18.01.2020 03:00:00 4,5 2,0 3,2 8,3 9,1 16 9 29 16 WSW 1025,0 47 0 0,0
18.01.2020 02:00:00 4,4 1,9 3,2 8,3 9,1 16 9 31 17 SW 1024,4 49 0 0,0

tt = temperature
td = dewpoint
tt 5cm = temperature 5cm
tt -20cm = temperature -20cm
tt -100cm = temperature -100cm
ff = wind speed
fx = gusts
dd = wind direction
ppp = reduced air pressure
vv = visibility
sd = sunshine duration
rr = precipitation

Next stations